Weather History for Leonardtown, MD

Change the Weather History Date:

Thursday, February 14, 2013

  Actual Average (KNHK) Record (KNHK)
Temperature  
Mean Temperature 39 °F -  
Max Temperature 46 °F 43 °F 52 °F (2014)
Min Temperature 32 °F 24 °F 33 °F (2014)
Degree Days  
Heating Degree Days 26    
Moisture  
Dew Point 30 °F    
Average Humidity 75    
Maximum Humidity 100    
Minimum Humidity 37    
Precipitation  
Precipitation 0.00 in - - ()
Sea Level Pressure  
Sea Level Pressure 29.98 in    
Wind  
Wind Speed 4 mph (WSW)    
Max Wind Speed 9 mph    
Max Gust Speed -    
Visibility 8 miles    
Events      
Averages and records for this station are not official NWS values.
T = Trace of Precipitation, MM = Missing Value Source: NWS Daily Summary

Daily Weather History Graph

Daily Weather History Graph

Search for Another Location

Airport:

Trip Planner

Search our weather history database for the weather conditions in past years. The results will help you decide how hot, cold, wet, or windy it might be!

Date:

Astronomy

Feb. 14, 2013 Rise Set
Actual Time 6:57 AM EST 5:43 PM EST
Civil Twilight 6:30 AM EST 6:10 PM EST
Nautical Twilight 5:59 AM EST 6:41 PM EST
Astronomical Twilight 5:28 AM EST 7:12 PM EST
Moon 9:02 AM EST (2/14) 10:39 PM EST (2/14)
Length of Visible Light 11h 40m
Length of Day
10h 46m
Waxing Crescent, 21% of the Moon is Illuminated
Feb 14
Waxing Crescent
Feb 17
First Quarter
Feb 25
Full
Mar 4
Last Quarter
Mar 11
New

Hourly Weather History & Observations

Time (EST) Temp. Windchill Dew Point Humidity Pressure Visibility Wind Dir Wind Speed Gust Speed Precip Events Conditions
12:09 AM 35.6 °F 30.7 °F 32.0 °F 87% 29.78 in 7.0 mi NW 5.8 mph - N/A   Overcast
12:29 AM 35.6 °F 31.7 °F 32.0 °F 87% 29.78 in 10.0 mi NW 4.6 mph - N/A   Overcast
12:49 AM 35.6 °F 30.7 °F 32.0 °F 87% 29.80 in 7.0 mi WNW 5.8 mph - N/A   Overcast
1:09 AM 35.6 °F 32.8 °F 32.0 °F 87% 29.81 in 7.0 mi WNW 3.5 mph - N/A   Overcast
1:29 AM 35.6 °F 31.7 °F 32.0 °F 87% 29.82 in 5.0 mi WNW 4.6 mph - N/A   Overcast
1:49 AM 35.6 °F 30.7 °F 32.0 °F 87% 29.84 in 5.0 mi WNW 5.8 mph - N/A   Overcast
2:09 AM 35.6 °F - 32.0 °F 87% 29.84 in 4.0 mi Calm Calm - N/A   Overcast
2:29 AM 35.6 °F 32.8 °F 32.0 °F 87% 29.84 in 4.0 mi WNW 3.5 mph - N/A   Overcast
2:49 AM 33.8 °F 30.8 °F 32.0 °F 93% 29.85 in 4.0 mi WNW 3.5 mph - N/A   Mostly Cloudy
3:09 AM 33.8 °F - 32.0 °F 93% 29.86 in 4.0 mi Calm Calm - N/A   Mostly Cloudy
3:29 AM 33.8 °F 29.6 °F 32.0 °F 93% 29.87 in 3.0 mi West 4.6 mph - N/A   Scattered Clouds
3:49 AM 33.8 °F 30.8 °F 32.0 °F 93% 29.88 in 2.5 mi WSW 3.5 mph - N/A   Mostly Cloudy
4:09 AM 33.8 °F 30.8 °F 32.0 °F 93% 29.89 in 3.0 mi WSW 3.5 mph - N/A   Scattered Clouds
4:29 AM 32.0 °F - 32.0 °F 100% 29.90 in 2.5 mi Calm Calm - N/A   Scattered Clouds
4:49 AM 32.0 °F 28.7 °F 32.0 °F 100% 29.91 in 2.0 mi West 3.5 mph - N/A   Scattered Clouds
5:09 AM 32.0 °F 28.7 °F 32.0 °F 100% 29.92 in 2.5 mi West 3.5 mph - N/A   Mostly Cloudy
5:29 AM 32.0 °F 28.7 °F 32.0 °F 100% 29.93 in 2.5 mi West 3.5 mph - N/A   Scattered Clouds
5:49 AM 32.0 °F 28.7 °F 32.0 °F 100% 29.94 in 2.0 mi WSW 3.5 mph - N/A   Scattered Clouds
6:09 AM 32.0 °F - 32.0 °F 100% 29.94 in 2.5 mi Calm Calm - N/A   Mostly Cloudy
6:29 AM 32.0 °F 28.7 °F 32.0 °F 100% 29.95 in 3.0 mi West 3.5 mph - N/A   Overcast
6:49 AM 32.0 °F - 32.0 °F 100% 29.96 in 3.0 mi Calm Calm - N/A   Overcast
7:10 AM 32.0 °F 28.7 °F 32.0 °F 100% 29.96 in 2.0 mi WNW 3.5 mph - N/A   Mostly Cloudy
7:30 AM 33.8 °F 30.8 °F 32.0 °F 93% 29.98 in 5.0 mi West 3.5 mph - N/A   Clear
7:50 AM 33.8 °F 29.6 °F 32.0 °F 93% 29.99 in 5.0 mi West 4.6 mph - N/A   Clear
8:10 AM 33.8 °F 30.8 °F 32.0 °F 93% 30.00 in 7.0 mi West 3.5 mph - N/A   Clear
8:30 AM 35.6 °F 32.8 °F 32.0 °F 87% 30.00 in 7.0 mi WNW 3.5 mph - N/A   Clear
8:50 AM 37.4 °F 33.8 °F 32.0 °F 81% 30.01 in 10.0 mi WNW 4.6 mph - N/A   Clear
9:10 AM 37.4 °F 32.8 °F 32.0 °F 81% 30.01 in 10.0 mi WNW 5.8 mph - N/A   Clear
9:30 AM 39.2 °F 35.9 °F 32.0 °F 75% 30.01 in 10.0 mi NW 4.6 mph - N/A   Clear
9:50 AM 41.0 °F 36.4 °F 30.2 °F 65% 30.01 in 10.0 mi WNW 6.9 mph - N/A   Clear
10:10 AM 41.0 °F 36.4 °F 30.2 °F 65% 30.03 in 10.0 mi WNW 6.9 mph - N/A   Clear
10:30 AM 42.8 °F 38.6 °F 30.2 °F 61% 30.04 in 10.0 mi North 6.9 mph - N/A   Clear
10:50 AM 42.8 °F 41.1 °F 28.4 °F 57% 30.03 in 10.0 mi North 3.5 mph - N/A   Clear
11:10 AM 42.8 °F 41.1 °F 28.4 °F 57% 30.03 in 10.0 mi West 3.5 mph - N/A   Clear
11:30 AM 42.8 °F 39.3 °F 26.6 °F 53% 30.03 in 10.0 mi NE 5.8 mph - N/A   Clear
11:50 AM 42.8 °F - 26.6 °F 53% 30.03 in 10.0 mi Calm Calm - N/A   Scattered Clouds
12:10 PM 42.8 °F - 28.4 °F 57% 30.01 in 10.0 mi Calm Calm - N/A   Scattered Clouds
12:30 PM 44.6 °F 43.1 °F 28.4 °F 53% 30.01 in 10.0 mi North 3.5 mph - N/A   Clear
12:50 PM 46.4 °F 45.2 °F 30.2 °F 53% 30.00 in 10.0 mi West 3.5 mph - N/A   Scattered Clouds
1:10 PM 44.6 °F 41.4 °F 28.4 °F 53% 30.00 in 10.0 mi South 5.8 mph - N/A   Mostly Cloudy
1:30 PM 46.4 °F 45.2 °F 28.4 °F 50% 30.00 in 10.0 mi SW 3.5 mph - N/A   Mostly Cloudy
1:50 PM 46.4 °F 41.9 °F 30.2 °F 53% 30.01 in 10.0 mi WSW 9.2 mph - N/A   Overcast
2:10 PM 46.4 °F 43.5 °F 28.4 °F 50% 30.00 in 10.0 mi SW 5.8 mph - N/A   Scattered Clouds
2:30 PM 46.4 °F 43.5 °F 28.4 °F 50% 30.00 in 10.0 mi SW 5.8 mph - N/A   Clear
2:50 PM 46.4 °F 42.4 °F 26.6 °F 46% 30.00 in 10.0 mi WSW 8.1 mph - N/A   Clear
3:10 PM 46.4 °F 42.9 °F 24.8 °F 43% 30.00 in 10.0 mi SW 6.9 mph - N/A   Clear
3:30 PM 46.4 °F 43.5 °F 26.6 °F 46% 30.01 in 10.0 mi SW 5.8 mph - N/A   Clear
3:51 PM 46.4 °F 42.4 °F 23.0 °F 40% 30.00 in 10.0 mi SSW 8.1 mph - N/A   Clear
4:11 PM 46.4 °F 43.5 °F 23.0 °F 40% 30.00 in 10.0 mi SW 5.8 mph - N/A   Clear
4:31 PM 46.4 °F 43.5 °F 23.0 °F 40% 29.99 in 10.0 mi SW 5.8 mph - N/A   Clear
4:51 PM 46.4 °F 45.2 °F 21.2 °F 37% 30.00 in 10.0 mi West 3.5 mph - N/A   Clear
5:11 PM 46.4 °F 45.2 °F 23.0 °F 40% 30.01 in 10.0 mi SW 3.5 mph - N/A   Clear
5:31 PM 44.6 °F - 26.6 °F 49% 30.00 in 10.0 mi Calm Calm - N/A   Clear
5:51 PM 41.0 °F - 28.4 °F 61% 30.01 in 10.0 mi Calm Calm - N/A   Clear
6:11 PM 39.2 °F - 30.2 °F 70% 30.03 in 10.0 mi Calm Calm - N/A   Clear
6:31 PM 39.2 °F 35.9 °F 30.2 °F 70% 30.03 in 10.0 mi SSE 4.6 mph - N/A   Clear
6:51 PM 39.2 °F 37.0 °F 30.2 °F 70% 30.03 in 10.0 mi SSE 3.5 mph - N/A   Clear
7:11 PM 39.2 °F 35.9 °F 30.2 °F 70% 30.03 in 10.0 mi SSE 4.6 mph - N/A   Clear
7:31 PM 37.4 °F 33.8 °F 30.2 °F 75% 30.04 in 10.0 mi SSE 4.6 mph - N/A   Clear
7:51 PM 37.4 °F 34.9 °F 30.2 °F 75% 30.03 in 10.0 mi SSE 3.5 mph - N/A   Clear
8:11 PM 37.4 °F 33.8 °F 30.2 °F 75% 30.04 in 10.0 mi SSE 4.6 mph - N/A   Clear
8:31 PM 37.4 °F 34.9 °F 32.0 °F 81% 30.04 in 10.0 mi SSE 3.5 mph - N/A   Clear
8:51 PM 37.4 °F - 32.0 °F 81% 30.05 in 10.0 mi Calm Calm - N/A   Clear
9:11 PM 35.6 °F - 32.0 °F 87% 30.04 in 10.0 mi Calm Calm - N/A   Clear
9:31 PM 35.6 °F 32.8 °F 32.0 °F 87% 30.04 in 10.0 mi SE 3.5 mph - N/A   Clear
9:51 PM 35.6 °F 32.8 °F 32.0 °F 87% 30.05 in 10.0 mi SSE 3.5 mph - N/A   Clear
10:11 PM 35.6 °F 32.8 °F 32.0 °F 87% 30.05 in 10.0 mi SE 3.5 mph - N/A   Clear
10:31 PM 35.6 °F 32.8 °F 32.0 °F 87% 30.05 in 10.0 mi SSE 3.5 mph - N/A   Clear
10:51 PM 35.6 °F 31.7 °F 32.0 °F 87% 30.06 in 10.0 mi SSE 4.6 mph - N/A   Clear
11:11 PM 35.6 °F 31.7 °F 32.0 °F 87% 30.06 in 10.0 mi SSE 4.6 mph - N/A   Clear
11:31 PM 35.6 °F 32.8 °F 32.0 °F 87% 30.05 in 10.0 mi SSE 3.5 mph - N/A   Clear
11:51 PM 35.6 °F 32.8 °F 32.0 °F 87% 30.05 in 10.0 mi SSE 3.5 mph - N/A   Clear